This is the latest recevied weather packets stored in our database for station/object W4NDF-13. If no packets are shown the sender has not sent any weather packets the latest 1 day(s).
| Time | Temp. | Humidity | Pressure | Rain* | Wind** | Luminosity | Snow |
|---|---|---|---|---|---|---|---|
| 1778073491 | 24.44° C | 98% | 1014.1 hPa | 0 mm | - | 102 W/m² | - |
| 1778071976 | 23.89° C | 99% | 1014.2 hPa | 0 mm | - | 40 W/m² | - |
| 1778071069 | 23.89° C | 99% | 1013.9 hPa | 0 mm | - | 21 W/m² | - |
| 1778070768 | 23.89° C | 99% | 1013.8 hPa | 0 mm | - | 21 W/m² | - |
| 1778070161 | 23.89° C | 99% | 1013.9 hPa | 0 mm | - | 24 W/m² | - |
| 1778069556 | 23.89° C | 99% | 1013.5 hPa | 0 mm | - | 20 W/m² | - |
| 1778068951 | 23.89° C | 99% | 1013.6 hPa | 0 mm | - | 16 W/m² | - |
| 1778068347 | 23.89° C | 99% | 1013.3 hPa | 1.78 mm | - | 12 W/m² | - |
| 1778067440 | 23.33° C | 99% | 1013.4 hPa | 0 mm | - | 6 W/m² | - |
| 1778067137 | 23.33° C | 99% | 1013.3 hPa | 0 mm | - | 3 W/m² | - |
| 1778065017 | 23.89° C | 98% | 1013.2 hPa | 0 mm | - | 0 W/m² | - |
| 1778064714 | 23.89° C | 97% | 1013.2 hPa | 0 mm | - | 0 W/m² | - |
| 1778064412 | 23.89° C | 97% | 1012.9 hPa | 0 mm | - | 0 W/m² | - |
| 1778062595 | 23.89° C | 94% | 1012.9 hPa | 0 mm | - | 0 W/m² | - |
| 1778062292 | 23.89° C | 94% | 1012.8 hPa | 0 mm | - | 0 W/m² | - |
| 1778061688 | 23.89° C | 94% | 1012.7 hPa | 0 mm | - | 0 W/m² | - |
| 1778061083 | 23.89° C | 93% | 1012.8 hPa | 0 mm | - | 0 W/m² | - |
| 1778060780 | 23.89° C | 93% | 1012.8 hPa | 0 mm | - | 0 W/m² | - |
| 1778060478 | 23.89° C | 93% | 1012.8 hPa | 0 mm | - | 0 W/m² | - |
| 1778060176 | 23.89° C | 93% | 1012.6 hPa | 0 mm | - | 0 W/m² | - |
| 1778059873 | 23.89° C | 93% | 1012.7 hPa | 0 mm | - | 0 W/m² | - |
| 1778059571 | 23.89° C | 93% | 1012.6 hPa | 0 mm | - | 0 W/m² | - |
| 1778058966 | 23.89° C | 92% | 1012.6 hPa | 0 mm | - | 0 W/m² | - |
| 1778058361 | 23.89° C | 92% | 1012.9 hPa | 0 mm | - | 0 W/m² | - |
| 1778057754 | 23.89° C | 92% | 1012.6 hPa | 0 mm | - | 0 W/m² | - |
* Rain latest hour (hover to see other rain measurements)
** Current wind speed in m/s (hover to see current wind gust speed)